Time,TemperatureF,DewpointF,PressureIn,WindDirection,WindDirectionDegrees,WindSpeedMPH,WindSpeedGustMPH,Humidity,HourlyPrecipIn,Conditions,Clouds,dailyrainin,SolarRadiationWatts/m^2,SoftwareType,DateUTC
2013-11-04 00:02:00,57.4,54.5,30.02,SW,220,6.0,8.0,90,0.00,,,0.00,0,Wunderground v.1.15,2013-11-03 22:02:00,
2013-11-04 00:32:00,57.4,55.1,30.02,SW,220,6.0,7.0,92,0.00,,,0.00,0,Wunderground v.1.15,2013-11-03 22:32:00,
2013-11-04 00:42:00,57.3,55.0,30.02,SSW,197,5.0,5.0,92,0.00,,,0.00,0,Wunderground v.1.15,2013-11-03 22:42:00,
2013-11-04 00:52:00,57.2,54.9,30.02,WSW,238,5.0,5.0,92,0.00,,,0.00,0,Wunderground v.1.15,2013-11-03 22:52:00,
2013-11-04 01:02:00,57.2,54.9,30.02,SSW,211,5.0,7.0,92,0.00,,,0.00,0,Wunderground v.1.15,2013-11-03 23:02:00,
2013-11-04 01:12:00,57.2,54.9,30.03,WSW,242,5.0,5.0,92,0.00,,,0.00,0,Wunderground v.1.15,2013-11-03 23:12:00,
2013-11-04 01:22:00,57.3,55.0,30.03,South,175,5.0,5.0,92,0.00,,,0.00,0,Wunderground v.1.15,2013-11-03 23:22:00,
2013-11-04 01:32:00,57.1,54.8,30.03,SW,215,5.0,5.0,92,0.00,,,0.00,0,Wunderground v.1.15,2013-11-03 23:32:00,
2013-11-04 01:42:00,57.0,54.4,30.03,SW,220,3.0,3.0,91,0.00,,,0.00,0,Wunderground v.1.15,2013-11-03 23:42:00,
2013-11-04 01:52:00,57.1,54.5,30.03,SSW,210,4.0,5.0,91,0.00,,,0.00,0,Wunderground v.1.15,2013-11-03 23:52:00,
2013-11-04 02:02:00,57.0,54.4,30.03,SW,228,4.0,4.0,91,0.00,,,0.00,0,Wunderground v.1.15,2013-11-04 00:02:00,
2013-11-04 02:12:00,57.1,54.5,30.02,SW,219,4.0,5.0,91,0.00,,,0.00,0,Wunderground v.1.15,2013-11-04 00:12:00,
2013-11-04 02:22:00,57.1,54.5,30.03,South,170,5.0,5.0,91,0.00,,,0.00,0,Wunderground v.1.15,2013-11-04 00:22:00,
2013-11-04 02:32:00,57.2,54.6,30.02,SSW,211,5.0,5.0,91,0.00,,,0.00,0,Wunderground v.1.15,2013-11-04 00:32:00,
2013-11-04 02:42:00,57.1,54.5,30.03,South,185,5.0,5.0,91,0.00,,,0.00,0,Wunderground v.1.15,2013-11-04 00:42:00,
2013-11-04 02:52:00,57.1,54.5,30.02,SW,234,6.0,8.0,91,0.00,,,0.00,0,Wunderground v.1.15,2013-11-04 00:52:00,
2013-11-04 03:02:00,57.1,54.5,30.02,SSW,202,6.0,6.0,91,0.00,,,0.00,0,Wunderground v.1.15,2013-11-04 01:02:00,
2013-11-04 03:12:00,57.1,54.5,30.02,SW,231,5.0,9.0,91,0.00,,,0.00,0,Wunderground v.1.15,2013-11-04 01:12:00,
2013-11-04 03:22:00,57.1,54.8,30.02,SW,215,6.0,6.0,92,0.00,,,0.00,0,Wunderground v.1.15,2013-11-04 01:22:00,
2013-11-04 03:32:00,57.0,54.7,30.02,SW,236,5.0,5.0,92,0.00,,,0.00,0,Wunderground v.1.15,2013-11-04 01:32:00,
2013-11-04 03:42:00,57.0,54.7,30.02,SW,218,5.0,5.0,92,0.00,,,0.00,0,Wunderground v.1.15,2013-11-04 01:42:00,
2013-11-04 03:52:00,57.1,54.8,30.02,SSW,206,5.0,5.0,92,0.00,,,0.00,0,Wunderground v.1.15,2013-11-04 01:52:00,
2013-11-04 04:02:00,57.1,54.8,30.02,SSW,198,5.0,5.0,92,0.00,,,0.00,0,Wunderground v.1.15,2013-11-04 02:02:00,
2013-11-04 04:12:00,57.1,55.1,30.02,SW,217,5.0,5.0,93,0.00,,,0.00,0,Wunderground v.1.15,2013-11-04 02:12:00,
2013-11-04 04:22:00,57.1,55.1,30.02,WSW,240,5.0,5.0,93,0.00,,,0.00,0,Wunderground v.1.15,2013-11-04 02:22:00,
2013-11-04 04:32:00,57.0,55.0,30.02,SSW,206,5.0,7.0,93,0.00,,,0.00,0,Wunderground v.1.15,2013-11-04 02:32:00,
2013-11-04 04:42:00,57.2,55.2,30.02,SW,232,5.0,6.0,93,0.00,,,0.00,0,Wunderground v.1.15,2013-11-04 02:42:00,
2013-11-04 04:52:00,57.2,55.2,30.02,SW,223,5.0,5.0,93,0.00,,,0.00,0,Wunderground v.1.15,2013-11-04 02:52:00,
2013-11-04 05:02:00,57.1,55.1,30.02,SSE,158,5.0,5.0,93,0.00,,,0.00,0,Wunderground v.1.15,2013-11-04 03:02:00,
2013-11-04 05:12:00,57.2,55.2,30.02,SW,221,5.0,5.0,93,0.00,,,0.00,0,Wunderground v.1.15,2013-11-04 03:12:00,
2013-11-04 05:22:00,57.4,55.4,30.02,SW,220,5.0,5.0,93,0.00,,,0.00,0,Wunderground v.1.15,2013-11-04 03:22:00,
2013-11-04 05:32:00,57.4,55.4,30.02,South,188,4.0,4.0,93,0.00,,,0.00,0,Wunderground v.1.15,2013-11-04 03:32:00,
2013-11-04 05:42:00,57.3,55.0,30.02,SW,222,5.0,5.0,92,0.00,,,0.00,0,Wunderground v.1.15,2013-11-04 03:42:00,
2013-11-04 05:52:00,57.4,54.8,30.02,SSW,213,4.0,4.0,91,0.00,,,0.00,0,Wunderground v.1.15,2013-11-04 03:52:00,
2013-11-04 06:02:00,57.6,55.0,30.02,South,190,4.0,4.0,91,0.00,,,0.00,0,Wunderground v.1.15,2013-11-04 04:02:00,
2013-11-04 06:12:00,57.6,55.0,30.03,SW,216,3.0,3.0,91,0.00,,,0.00,0,Wunderground v.1.15,2013-11-04 04:12:00,
2013-11-04 06:22:00,57.7,55.1,30.03,WSW,257,3.0,3.0,91,0.00,,,0.00,0,Wunderground v.1.15,2013-11-04 04:22:00,
2013-11-04 06:32:00,57.6,55.0,30.03,SW,236,4.0,4.0,91,0.00,,,0.00,0,Wunderground v.1.15,2013-11-04 04:32:00,
2013-11-04 06:42:00,57.6,54.7,30.03,South,169,3.0,3.0,90,0.00,,,0.00,7,Wunderground v.1.15,2013-11-04 04:42:00,
2013-11-04 06:52:00,57.5,54.6,30.03,SSW,202,3.0,4.0,90,0.00,,,0.00,12,Wunderground v.1.15,2013-11-04 04:52:00,
2013-11-04 07:02:00,57.7,54.5,30.04,SW,232,3.0,3.0,89,0.00,,,0.00,21,Wunderground v.1.15,2013-11-04 05:02:00,
2013-11-04 07:12:00,57.9,54.4,30.04,South,186,4.0,5.0,88,0.00,,,0.00,33,Wunderground v.1.15,2013-11-04 05:12:00,
2013-11-04 07:22:00,58.2,54.3,30.04,SSW,200,3.0,4.0,87,0.00,,,0.00,44,Wunderground v.1.15,2013-11-04 05:22:00,
2013-11-04 07:32:00,58.5,54.6,30.05,SW,226,4.0,4.0,87,0.00,,,0.00,67,Wunderground v.1.15,2013-11-04 05:32:00,
2013-11-04 07:52:00,59.3,55.4,30.06,South,182,3.0,3.0,87,0.00,,,0.00,86,Wunderground v.1.15,2013-11-04 05:52:00,
2013-11-04 08:02:00,59.5,55.3,30.06,South,190,2.0,3.0,86,0.00,,,0.00,141,Wunderground v.1.15,2013-11-04 06:02:00,
2013-11-04 08:12:00,59.9,55.4,30.06,SW,217,3.0,5.0,85,0.00,,,0.00,169,Wunderground v.1.15,2013-11-04 06:12:00,
2013-11-04 08:22:00,60.3,55.8,30.06,South,171,3.0,3.0,85,0.00,,,0.00,197,Wunderground v.1.15,2013-11-04 06:22:00,
2013-11-04 08:32:00,60.4,55.2,30.07,WSW,244,4.0,4.0,83,0.00,,,0.00,206,Wunderground v.1.15,2013-11-04 06:32:00,
2013-11-04 08:42:00,60.7,55.5,30.07,West,264,4.0,4.0,83,0.00,,,0.00,225,Wunderground v.1.15,2013-11-04 06:42:00,
2013-11-04 08:52:00,60.8,55.3,30.07,SW,229,5.0,5.0,82,0.00,,,0.00,255,Wunderground v.1.15,2013-11-04 06:52:00,
2013-11-04 09:12:00,61.7,55.1,30.07,SSW,211,4.0,8.0,79,0.00,,,0.00,294,Wunderground v.1.15,2013-11-04 07:12:00,
2013-11-04 09:22:00,61.9,55.0,30.06,West,281,6.0,7.0,78,0.00,,,0.00,315,Wunderground v.1.15,2013-11-04 07:22:00,
2013-11-04 09:32:00,62.2,54.9,30.07,South,169,7.0,8.0,77,0.00,,,0.00,330,Wunderground v.1.15,2013-11-04 07:32:00,
2013-11-04 09:42:00,63.0,54.6,30.06,WSW,244,6.0,6.0,74,0.00,,,0.00,353,Wunderground v.1.15,2013-11-04 07:42:00,
2013-11-04 09:52:00,64.0,54.8,30.07,West,259,4.0,4.0,72,0.00,,,0.00,366,Wunderground v.1.15,2013-11-04 07:52:00,
2013-11-04 10:02:00,63.9,54.3,30.07,SSW,207,4.0,6.0,71,0.00,,,0.00,380,Wunderground v.1.15,2013-11-04 08:02:00,
2013-11-04 10:12:00,63.3,53.7,30.07,SW,223,7.0,8.0,71,0.00,,,0.00,390,Wunderground v.1.15,2013-11-04 08:12:00,
2013-11-04 10:22:00,63.6,53.2,30.07,SW,217,7.0,7.0,69,0.00,,,0.00,411,Wunderground v.1.15,2013-11-04 08:22:00,
2013-11-04 10:32:00,64.2,53.4,30.06,South,169,5.0,5.0,68,0.00,,,0.00,420,Wunderground v.1.15,2013-11-04 08:32:00,
2013-11-04 10:42:00,64.9,53.3,30.07,WSW,246,4.0,6.0,66,0.00,,,0.00,429,Wunderground v.1.15,2013-11-04 08:42:00,
2013-11-04 10:52:00,64.9,52.8,30.06,WSW,257,7.0,7.0,65,0.00,,,0.00,445,Wunderground v.1.15,2013-11-04 08:52:00,
2013-11-04 11:02:00,65.5,53.0,30.07,SSW,211,5.0,6.0,64,0.00,,,0.00,446,Wunderground v.1.15,2013-11-04 09:02:00,
2013-11-04 11:12:00,65.3,52.8,30.06,SSW,209,5.0,5.0,64,0.00,,,0.00,450,Wunderground v.1.15,2013-11-04 09:12:00,
2013-11-04 11:22:00,65.8,52.9,30.06,SW,232,5.0,11.0,63,0.00,,,0.00,462,Wunderground v.1.15,2013-11-04 09:22:00,
2013-11-04 11:32:00,66.0,53.5,30.06,SSW,207,6.0,6.0,64,0.00,,,0.00,468,Wunderground v.1.15,2013-11-04 09:32:00,
2013-11-04 11:42:00,66.3,54.6,30.05,SW,236,4.0,4.0,66,0.00,,,0.00,464,Wunderground v.1.15,2013-11-04 09:42:00,
2013-11-04 11:52:00,65.7,54.8,30.05,SSW,211,5.0,5.0,68,0.00,,,0.00,471,Wunderground v.1.15,2013-11-04 09:52:00,
2013-11-04 12:02:00,63.8,54.6,30.04,SSE,162,8.0,14.0,72,0.00,,,0.00,462,Wunderground v.1.15,2013-11-04 10:02:00,
2013-11-04 12:32:00,63.0,55.3,30.03,South,172,7.0,7.0,76,0.00,,,0.00,457,Wunderground v.1.15,2013-11-04 10:32:00,
2013-11-04 12:52:00,64.5,55.3,30.02,NNW,346,4.0,4.0,72,0.00,,,0.00,441,Wunderground v.1.15,2013-11-04 10:52:00,
2013-11-04 13:02:00,65.1,55.1,30.02,South,187,4.0,4.0,70,0.00,,,0.00,438,Wunderground v.1.15,2013-11-04 11:02:00,
2013-11-04 13:12:00,65.9,55.4,30.02,SW,214,4.0,4.0,69,0.00,,,0.00,422,Wunderground v.1.15,2013-11-04 11:12:00,
2013-11-04 13:22:00,66.9,54.3,30.02,WSW,253,4.0,4.0,64,0.00,,,0.00,418,Wunderground v.1.15,2013-11-04 11:22:00,
2013-11-04 13:32:00,67.7,55.5,30.01,SSE,159,3.0,3.0,65,0.00,,,0.00,397,Wunderground v.1.15,2013-11-04 11:32:00,
2013-11-04 13:52:00,65.6,55.2,30.01,South,186,5.0,5.0,69,0.00,,,0.00,369,Wunderground v.1.15,2013-11-04 11:52:00,
2013-11-04 14:02:00,65.6,55.5,30.01,South,178,4.0,5.0,70,0.00,,,0.00,357,Wunderground v.1.15,2013-11-04 12:02:00,
2013-11-04 14:12:00,66.2,55.7,30.00,South,173,3.0,6.0,69,0.00,,,0.00,341,Wunderground v.1.15,2013-11-04 12:12:00,
2013-11-04 14:22:00,66.6,55.3,30.00,SSW,206,3.0,3.0,67,0.00,,,0.00,316,Wunderground v.1.15,2013-11-04 12:22:00,
2013-11-04 14:32:00,66.5,55.6,30.00,SW,221,3.0,4.0,68,0.00,,,0.00,295,Wunderground v.1.15,2013-11-04 12:32:00,
2013-11-04 14:42:00,66.1,56.0,30.00,SSW,194,3.0,3.0,70,0.00,,,0.00,276,Wunderground v.1.15,2013-11-04 12:42:00,
2013-11-04 14:52:00,66.1,56.0,30.00,SSW,199,3.0,3.0,70,0.00,,,0.00,250,Wunderground v.1.15,2013-11-04 12:52:00,
2013-11-04 15:02:00,66.2,55.7,29.99,South,186,2.0,4.0,69,0.00,,,0.00,230,Wunderground v.1.15,2013-11-04 13:02:00,
2013-11-04 15:12:00,66.5,56.0,30.00,South,172,3.0,3.0,69,0.00,,,0.00,88,Wunderground v.1.15,2013-11-04 13:12:00,
2013-11-04 15:22:00,66.0,55.5,29.99,South,188,3.0,3.0,69,0.00,,,0.00,176,Wunderground v.1.15,2013-11-04 13:22:00,
2013-11-04 15:42:00,65.5,55.8,29.98,South,170,3.0,3.0,71,0.00,,,0.00,121,Wunderground v.1.15,2013-11-04 13:42:00,
2013-11-04 15:52:00,65.2,55.6,29.98,SW,217,2.0,2.0,71,0.00,,,0.00,97,Wunderground v.1.15,2013-11-04 13:52:00,
2013-11-04 16:02:00,65.5,55.8,29.98,SW,217,1.0,2.0,71,0.00,,,0.00,72,Wunderground v.1.15,2013-11-04 14:02:00,
2013-11-04 16:12:00,65.6,55.5,29.97,SSW,205,1.0,3.0,70,0.00,,,0.00,51,Wunderground v.1.15,2013-11-04 14:12:00,
2013-11-04 16:22:00,64.7,55.1,29.97,SSW,196,2.0,2.0,71,0.00,,,0.00,32,Wunderground v.1.15,2013-11-04 14:22:00,
2013-11-04 16:32:00,64.0,55.2,29.97,SSW,196,1.0,2.0,73,0.00,,,0.00,21,Wunderground v.1.15,2013-11-04 14:32:00,
2013-11-04 16:42:00,62.8,54.8,29.97,SSW,209,2.0,2.0,75,0.00,,,0.00,14,Wunderground v.1.15,2013-11-04 14:42:00,
2013-11-04 16:52:00,62.1,54.4,29.97,SW,218,2.0,3.0,76,0.00,,,0.00,7,Wunderground v.1.15,2013-11-04 14:52:00,
2013-11-04 17:02:00,61.9,54.2,29.97,WSW,240,3.0,3.0,76,0.00,,,0.00,0,Wunderground v.1.15,2013-11-04 15:02:00,
2013-11-04 17:12:00,61.3,54.4,29.98,SSW,209,3.0,3.0,78,0.00,,,0.00,0,Wunderground v.1.15,2013-11-04 15:12:00,
2013-11-04 17:22:00,61.0,54.1,29.98,SW,231,2.0,3.0,78,0.00,,,0.00,0,Wunderground v.1.15,2013-11-04 15:22:00,
2013-11-04 17:32:00,61.0,54.1,29.98,SW,216,3.0,3.0,78,0.00,,,0.00,0,Wunderground v.1.15,2013-11-04 15:32:00,
2013-11-04 17:42:00,61.1,54.2,29.98,SSW,212,3.0,3.0,78,0.00,,,0.00,0,Wunderground v.1.15,2013-11-04 15:42:00,
2013-11-04 17:52:00,61.1,53.8,29.98,SW,222,3.0,3.0,77,0.00,,,0.00,0,Wunderground v.1.15,2013-11-04 15:52:00,
2013-11-04 18:02:00,61.1,53.5,29.99,SSW,210,2.0,2.0,76,0.00,,,0.00,0,Wunderground v.1.15,2013-11-04 16:02:00,
2013-11-04 18:12:00,61.0,53.4,29.98,SSW,196,1.0,1.0,76,0.00,,,0.00,0,Wunderground v.1.15,2013-11-04 16:12:00,
2013-11-04 18:22:00,60.8,53.2,29.99,South,182,0.0,1.0,76,0.00,,,0.00,0,Wunderground v.1.15,2013-11-04 16:22:00,
2013-11-04 18:32:00,60.9,52.9,29.99,South,189,1.0,1.0,75,0.00,,,0.00,0,Wunderground v.1.15,2013-11-04 16:32:00,
2013-11-04 18:42:00,60.9,52.9,29.98,SSW,205,1.0,1.0,75,0.00,,,0.00,0,Wunderground v.1.15,2013-11-04 16:42:00,
2013-11-04 18:52:00,60.7,52.7,29.98,SW,219,0.0,0.0,75,0.00,,,0.00,0,Wunderground v.1.15,2013-11-04 16:52:00,
2013-11-04 19:02:00,60.7,52.4,29.98,SW,219,0.0,0.0,74,0.00,,,0.00,0,Wunderground v.1.15,2013-11-04 17:02:00,
2013-11-04 19:12:00,61.2,52.5,29.98,SW,216,1.0,1.0,73,0.00,,,0.00,0,Wunderground v.1.15,2013-11-04 17:12:00,
2013-11-04 19:22:00,61.4,52.7,29.98,SSW,202,1.0,1.0,73,0.00,,,0.00,0,Wunderground v.1.15,2013-11-04 17:22:00,
2013-11-04 19:32:00,61.3,52.6,29.98,SSW,207,0.0,3.0,73,0.00,,,0.00,0,Wunderground v.1.15,2013-11-04 17:32:00,
2013-11-04 19:42:00,61.6,52.5,29.97,SW,227,2.0,3.0,72,0.00,,,0.00,0,Wunderground v.1.15,2013-11-04 17:42:00,
2013-11-04 19:52:00,61.6,52.5,29.97,SW,225,1.0,1.0,72,0.00,,,0.00,0,Wunderground v.1.15,2013-11-04 17:52:00,
2013-11-04 20:02:00,61.3,52.2,29.97,SW,225,0.0,0.0,72,0.00,,,0.00,0,Wunderground v.1.15,2013-11-04 18:02:00,
2013-11-04 20:12:00,61.2,52.5,29.98,SW,225,0.0,1.0,73,0.00,,,0.00,0,Wunderground v.1.15,2013-11-04 18:12:00,
2013-11-04 20:22:00,61.2,52.1,29.98,SW,222,2.0,3.0,72,0.00,,,0.00,0,Wunderground v.1.15,2013-11-04 18:22:00,
2013-11-04 20:32:00,61.4,52.3,29.98,SW,215,3.0,3.0,72,0.00,,,0.00,0,Wunderground v.1.15,2013-11-04 18:32:00,
2013-11-04 20:42:00,61.6,52.1,29.98,SSW,211,3.0,3.0,71,0.00,,,0.00,0,Wunderground v.1.15,2013-11-04 18:42:00,
2013-11-04 20:52:00,61.7,51.8,29.98,SW,216,3.0,3.0,70,0.00,,,0.00,0,Wunderground v.1.15,2013-11-04 18:52:00,
2013-11-04 21:02:00,61.6,52.1,29.99,SW,225,2.0,2.0,71,0.00,,,0.00,0,Wunderground v.1.15,2013-11-04 19:02:00,
2013-11-04 21:12:00,61.2,51.7,29.99,SW,221,2.0,2.0,71,0.00,,,0.00,0,Wunderground v.1.15,2013-11-04 19:12:00,
2013-11-04 21:22:00,61.0,52.3,29.99,SW,225,2.0,3.0,73,0.00,,,0.00,0,Wunderground v.1.15,2013-11-04 19:22:00,
2013-11-04 21:32:00,60.8,52.1,29.99,SSW,213,2.0,3.0,73,0.00,,,0.00,0,Wunderground v.1.15,2013-11-04 19:32:00,
2013-11-04 21:42:00,60.7,51.6,29.99,WSW,240,2.0,2.0,72,0.00,,,0.00,0,Wunderground v.1.15,2013-11-04 19:42:00,
2013-11-04 22:12:00,60.5,51.4,29.99,SW,227,0.0,2.0,72,0.00,,,0.00,0,Wunderground v.1.15,2013-11-04 20:12:00,
2013-11-04 22:22:00,60.7,51.2,29.99,SSW,212,2.0,2.0,71,0.00,,,0.00,0,Wunderground v.1.15,2013-11-04 20:22:00,
2013-11-04 22:32:00,60.6,51.1,29.99,SSW,208,2.0,2.0,71,0.00,,,0.00,0,Wunderground v.1.15,2013-11-04 20:32:00,
2013-11-04 22:42:00,60.5,51.0,29.98,SW,222,2.0,2.0,71,0.00,,,0.00,0,Wunderground v.1.15,2013-11-04 20:42:00,
2013-11-04 22:52:00,60.1,51.0,29.98,SW,224,2.0,2.0,72,0.00,,,0.00,0,Wunderground v.1.15,2013-11-04 20:52:00,
2013-11-04 23:02:00,59.9,51.2,29.99,SW,218,2.0,3.0,73,0.00,,,0.00,0,Wunderground v.1.15,2013-11-04 21:02:00,
2013-11-04 23:12:00,59.8,51.1,29.98,SW,223,3.0,3.0,73,0.00,,,0.00,0,Wunderground v.1.15,2013-11-04 21:12:00,
2013-11-04 23:22:00,59.9,51.2,29.98,SSW,192,2.0,2.0,73,0.00,,,0.00,0,Wunderground v.1.15,2013-11-04 21:22:00,
2013-11-04 23:32:00,59.9,51.2,29.98,South,190,2.0,2.0,73,0.00,,,0.00,0,Wunderground v.1.15,2013-11-04 21:32:00,
2013-11-04 23:42:00,59.7,51.4,29.99,South,184,1.0,1.0,74,0.00,,,0.00,0,Wunderground v.1.15,2013-11-04 21:42:00,
2013-11-04 23:52:00,59.5,51.6,29.99,South,169,1.0,1.0,75,0.00,,,0.00,0,Wunderground v.1.15,2013-11-04 21:52:00,